TimeCDT,TemperatureF,Dew PointF,Humidity,Sea Level PressureIn,VisibilityMPH,Wind Direction,Wind SpeedMPH,Gust SpeedMPH,PrecipitationIn,Events,Conditions,WindDirDegrees,DateUTC
12:15 AM,68.0,59.0,73,29.78,10.0,Calm,Calm,-,N/A,,Partly Cloudy,0,2013-06-30 05:15:00
12:35 AM,68.0,59.0,73,29.78,10.0,Calm,Calm,-,N/A,,Clear,0,2013-06-30 05:35:00
12:55 AM,66.2,59.0,78,29.78,10.0,Calm,Calm,-,N/A,,Clear,0,2013-06-30 05:55:00
1:15 AM,66.2,59.0,78,29.78,10.0,Calm,Calm,-,N/A,,Clear,0,2013-06-30 06:15:00
1:35 AM,64.4,59.0,83,29.78,10.0,Calm,Calm,-,N/A,,Clear,0,2013-06-30 06:35:00
1:55 AM,64.4,59.0,83,29.78,10.0,Calm,Calm,-,N/A,,Clear,0,2013-06-30 06:55:00
2:15 AM,64.4,59.0,83,29.78,10.0,Calm,Calm,-,N/A,,Clear,0,2013-06-30 07:15:00
2:35 AM,64.4,59.0,83,29.78,10.0,Calm,Calm,-,N/A,,Clear,0,2013-06-30 07:35:00
2:55 AM,62.6,57.2,82,29.77,10.0,Calm,Calm,-,N/A,,Clear,0,2013-06-30 07:55:00
3:15 AM,62.6,59.0,88,29.77,10.0,Calm,Calm,-,N/A,,Clear,0,2013-06-30 08:15:00
3:35 AM,62.6,59.0,88,29.78,10.0,Calm,Calm,-,N/A,,Clear,0,2013-06-30 08:35:00
3:55 AM,62.6,59.0,88,29.77,10.0,Calm,Calm,-,N/A,,Clear,0,2013-06-30 08:55:00
4:15 AM,62.6,59.0,88,29.77,10.0,Calm,Calm,-,N/A,,Clear,0,2013-06-30 09:15:00
4:35 AM,62.6,59.0,88,29.77,10.0,Calm,Calm,-,N/A,,Clear,0,2013-06-30 09:35:00
4:55 AM,62.6,57.2,82,29.77,10.0,Calm,Calm,-,N/A,,Clear,0,2013-06-30 09:55:00
5:15 AM,62.6,57.2,82,29.78,10.0,Calm,Calm,-,N/A,,Clear,0,2013-06-30 10:15:00
5:35 AM,60.8,57.2,88,29.78,10.0,Calm,Calm,-,N/A,,Clear,0,2013-06-30 10:35:00
5:55 AM,60.8,57.2,88,29.78,10.0,Calm,Calm,-,N/A,,Clear,0,2013-06-30 10:55:00
6:15 AM,60.8,57.2,88,29.79,10.0,Calm,Calm,-,N/A,,Clear,0,2013-06-30 11:15:00
6:35 AM,62.6,57.2,82,29.80,10.0,Calm,Calm,-,N/A,,Clear,0,2013-06-30 11:35:00
6:55 AM,62.6,57.2,82,29.81,10.0,Calm,Calm,-,N/A,,Clear,0,2013-06-30 11:55:00
7:15 AM,66.2,59.0,78,29.82,10.0,Calm,Calm,-,N/A,,Clear,0,2013-06-30 12:15:00
7:35 AM,68.0,57.2,68,29.82,10.0,North,4.6,-,N/A,,Clear,350,2013-06-30 12:35:00
7:55 AM,69.8,59.0,68,29.82,10.0,North,3.5,-,N/A,,Clear,360,2013-06-30 12:55:00
8:15 AM,73.4,59.0,61,29.83,10.0,North,4.6,-,N/A,,Clear,350,2013-06-30 13:15:00
8:35 AM,75.2,57.2,53,29.83,10.0,North,5.8,-,N/A,,Clear,360,2013-06-30 13:35:00
8:55 AM,77.0,59.0,54,29.83,10.0,North,5.8,-,N/A,,Clear,360,2013-06-30 13:55:00
9:15 AM,77.0,57.2,50,29.83,10.0,North,6.9,-,N/A,,Clear,350,2013-06-30 14:15:00
9:35 AM,78.8,57.2,47,29.83,10.0,North,6.9,-,N/A,,Clear,360,2013-06-30 14:35:00
9:55 AM,80.6,57.2,45,29.83,10.0,North,9.2,-,N/A,,Clear,10,2013-06-30 14:55:00
10:15 AM,80.6,59.0,48,29.83,10.0,North,6.9,-,N/A,,Clear,360,2013-06-30 15:15:00
10:35 AM,80.6,57.2,45,29.83,10.0,North,6.9,-,N/A,,Clear,360,2013-06-30 15:35:00
10:55 AM,82.4,59.0,45,29.84,10.0,NNE,9.2,-,N/A,,Clear,20,2013-06-30 15:55:00
11:15 AM,82.4,59.0,45,29.84,10.0,NNW,6.9,-,N/A,,Partly Cloudy,340,2013-06-30 16:15:00
11:35 AM,84.2,59.0,42,29.84,10.0,NNE,9.2,-,N/A,,Partly Cloudy,20,2013-06-30 16:35:00
11:55 AM,84.2,59.0,42,29.84,10.0,NW,9.2,-,N/A,,Partly Cloudy,320,2013-06-30 16:55:00
12:15 PM,84.2,57.2,40,29.84,10.0,NNW,9.2,-,N/A,,Mostly Cloudy,330,2013-06-30 17:15:00
12:35 PM,86.0,57.2,37,29.84,10.0,NW,9.2,-,N/A,,Scattered Clouds,320,2013-06-30 17:35:00
12:55 PM,86.0,57.2,37,29.83,10.0,North,11.5,16.1,N/A,,Partly Cloudy,360,2013-06-30 17:55:00
1:15 PM,84.2,59.0,42,29.83,10.0,NNW,9.2,-,N/A,,Mostly Cloudy,340,2013-06-30 18:15:00
1:35 PM,86.0,57.2,37,29.83,10.0,NNW,9.2,-,N/A,,Scattered Clouds,330,2013-06-30 18:35:00
1:55 PM,84.2,57.2,40,29.83,10.0,North,9.2,-,N/A,,Scattered Clouds,360,2013-06-30 18:55:00
2:15 PM,86.0,57.2,37,29.83,10.0,NNW,9.2,-,N/A,,Partly Cloudy,340,2013-06-30 19:15:00
2:35 PM,84.2,57.2,40,29.83,10.0,North,8.1,-,N/A,,Scattered Clouds,350,2013-06-30 19:35:00
2:55 PM,82.4,59.0,45,29.83,10.0,NNW,6.9,-,N/A,,Mostly Cloudy,340,2013-06-30 19:55:00
3:15 PM,84.2,57.2,40,29.83,10.0,NNW,9.2,-,N/A,,Partly Cloudy,330,2013-06-30 20:15:00
3:35 PM,84.2,57.2,40,29.83,10.0,NNW,8.1,-,N/A,,Scattered Clouds,340,2013-06-30 20:35:00
3:55 PM,82.4,57.2,42,29.83,10.0,North,3.5,-,N/A,,Mostly Cloudy,360,2013-06-30 20:55:00
4:15 PM,86.0,57.2,37,29.83,10.0,North,4.6,-,N/A,,Scattered Clouds,350,2013-06-30 21:15:00
4:35 PM,86.0,57.2,37,29.83,10.0,North,6.9,-,N/A,,Scattered Clouds,10,2013-06-30 21:35:00
4:55 PM,84.2,57.2,40,29.83,10.0,North,6.9,-,N/A,,Mostly Cloudy,10,2013-06-30 21:55:00
5:15 PM,84.2,59.0,42,29.83,10.0,North,5.8,-,N/A,,Partly Cloudy,360,2013-06-30 22:15:00
5:35 PM,84.2,59.0,42,29.83,10.0,North,9.2,-,N/A,,Clear,360,2013-06-30 22:35:00
5:55 PM,84.2,57.2,40,29.83,10.0,North,6.9,-,N/A,,Partly Cloudy,360,2013-06-30 22:55:00
6:15 PM,82.4,57.2,42,29.83,10.0,NNW,6.9,-,N/A,,Partly Cloudy,340,2013-06-30 23:15:00
6:35 PM,82.4,57.2,42,29.83,10.0,NW,6.9,-,N/A,,Clear,320,2013-06-30 23:35:00
6:55 PM,84.2,57.2,40,29.83,10.0,NNW,5.8,-,N/A,,Clear,330,2013-06-30 23:55:00
7:15 PM,82.4,57.2,42,29.83,10.0,NNW,3.5,-,N/A,,Clear,330,2013-07-01 00:15:00
7:35 PM,80.6,59.0,48,29.83,10.0,NNW,4.6,-,N/A,,Clear,340,2013-07-01 00:35:00
7:55 PM,78.8,59.0,51,29.83,10.0,North,3.5,-,N/A,,Clear,350,2013-07-01 00:55:00
8:15 PM,75.2,59.0,57,29.83,10.0,Calm,Calm,-,N/A,,Clear,0,2013-07-01 01:15:00
8:35 PM,73.4,60.8,65,29.84,10.0,Calm,Calm,-,N/A,,Clear,0,2013-07-01 01:35:00
8:55 PM,71.6,60.8,69,29.85,10.0,Calm,Calm,-,N/A,,Clear,0,2013-07-01 01:55:00
9:15 PM,69.8,62.6,78,29.85,10.0,Calm,Calm,-,N/A,,Clear,0,2013-07-01 02:15:00
9:35 PM,68.0,60.8,78,29.86,10.0,Calm,Calm,-,N/A,,Clear,0,2013-07-01 02:35:00
9:55 PM,68.0,60.8,78,29.86,10.0,Calm,Calm,-,N/A,,Clear,0,2013-07-01 02:55:00
10:15 PM,68.0,60.8,78,29.88,10.0,Calm,Calm,-,N/A,,Clear,0,2013-07-01 03:15:00
10:35 PM,66.2,62.6,88,29.88,10.0,NW,3.5,-,N/A,,Clear,320,2013-07-01 03:35:00
10:55 PM,68.0,60.8,78,29.88,10.0,NW,4.6,-,N/A,,Clear,320,2013-07-01 03:55:00
11:15 PM,68.0,60.8,78,29.88,10.0,Calm,Calm,-,N/A,,Clear,0,2013-07-01 04:15:00
11:35 PM,66.2,60.8,83,29.88,10.0,Calm,Calm,-,N/A,,Clear,0,2013-07-01 04:35:00
11:55 PM,66.2,59.0,78,29.88,10.0,Calm,Calm,-,N/A,,Clear,0,2013-07-01 04:55:00